STARLINK-33782, 64332

Orbit data source: Space-Track

STARLINK-33782, 64332 is a payload satellite owned by SpaceX/Seattle (US) in LEO that was launched on Tue, 10 Jun 2025 UTC via an FALCON 9 launch vehicle from the Air Force Eastern Test Range (AFETR). Payload-class satellites include a variety of spacecraft equipped with specific instruments for various scientific and technological missions. These include communications satellites like Starlink; space stations such as the ISS; scientific satellites like the Hubble; Earth observation satellites from companies like Planet Labs, Umbra, and HawkEye 360; GPS; miniature CubeSats for education and research; and military/defense satellites.

Loading next visibility...
Identifier
64332, 2025-124R
Orbit
LEO
Last TLE update
13 hours ago
Origin
Manufacturer
SpaceX/Seattle
Mission
Operational spacecraft
Bus & Motor
STARLINK V2MO, Unknown motor
Mass
575 kg wet, ~530 kg dry
Launch date (UTC)
2025-06-10 (1 month ago)
Launch vehicle
FALCON 9
Launch site
Air Force Eastern Test Range (AFETR)
Object type
Payload
Rocket body
Debris
Shape & HBR
Unknown
Radar Cross Section
Large (>1 m²)

Expand to show TLE details & history

TLE from 13 hours ago
0 STARLINK-33782
1 64332U 25124R   25199.79427345  .00032830  00000-0  78999-3 0  9990
2 64332  43.0040   4.8364 0001649 271.3298  88.7370 15.40692902  5981
Epoch: 2025-07-18T19:03Z
TLE epoch observation values (Epoch: 2025-07-18T19:03:45.226Z)
Latitude
0.00002°
Longitude
142.05736°
Altitude
443.813 km
Speed
7.648 km/s
True Right ascension
00h 19m 20s
True Declination
0° 00' 00"
Sunlit
Object was in full shadow at epoch
Visualization orbit readout
Latitude
31.00563°
Longitude
178.8705°
Altitude
445.475 km
Speed
7.649 km/s
Apparent Right ascension
05h 20m 19s
Apparent Declination
-4° 10' 51"
Sunlit
Object is in daylight
Visualization observer readout
Local Sidereal Time
20:32:10
Azimuth
63.298° ENE
Elevation
-33.985°
Doppler factor
1
Orbital elements
Apogee altitude
447.144 km
Perigee altitude
444.893 km
Semi-major axis
6,824.156 km
Eccentricity
0.00016
Inclination
43.004°
RAAN
4.8364°
Arg. of periapsis
271.3298°
True anomaly
88.75589°
Mean anomaly
88.737°
Eccentric anomaly
88.74645°
Mean motion
3.85008 °/min
Orbital period
93.5 mins
BSTAR
0.00078999
Loading maneuver chart data...
Loading SW <> Apogee altitude chart data...
Loading historical data...
Loading historical data...
Loading historical data...
Loading historical data...
Loading historical data...
Loading historical data...
Loading historical data...
|